Weather in Novomikhaylovskoye

Russia / Krasnodar Krai     45°17′21″N   41°00′24″E
temp.,
°C
wind,
m/s
gust,
m/s
humid.,
%
clouds,
%
prec.,
mm/h
press.,
hPa
HPBL,
m
17 may, mon
mon1700:00+18e476287 0.0 1002117
03:00+16sse22765 0.0 100315
06:00+16wsw24924 0.0 1004116
09:00+21nnw6116915 0.0 1006654
12:00+22nw5665100 0.0 10071080
15:00+23wnw676794 0.0 10071364
18:00+18wsw5988100 0.4 1007357
21:00+16w51096100 2.3 1009375
18 may, tue
tue1800:00+14w61293100 2.6 1010454
03:00+14wnw31094100 3.3 1011381
06:00+13w2996100 0.0 1012337
09:00+17w5780100 0.0 1012740
12:00+21w576485 0.0 10111410
15:00+22w456189 0.3 10111568
18:00+20wsw11735 0.7 101198
21:00+15se338853 1.1 101137
19 may, wed
wed1900:00+15ese358956 0.1 101072
03:00+13s1190100 0.3 100914
06:00+14w71297100 5.4 1010526
09:00+16wsw51084100 9.3 10111110
12:00+17wsw6107872 6.9 10141232
15:00+19wsw1015700 7.6 10141574
18:00+16wsw815730 0.0 10151049
21:00+14w61566100 0.0 1016765
20 may, thu
thu2000:00+11ssw49742 0.0 1017241
03:00+10s358026 0.0 101767
06:00+11sse35862 0.0 1017110
09:00+17s336112 0.0 1017716
12:00+21sse1247100 0.0 10161205
15:00+22e334517 0.0 10151219
18:00+20ne3671100 0.0 1014148
21:00+16e41184100 0.0 1014184
21 may, fri
fri2100:00+14e47790 0.0 101399
03:00+13ese48785 0.0 1012130
06:00+14ese4107919 0.0 1012204
09:00+21ese58645 0.0 1011377
12:00+27e67560 0.0 1010627
15:00+27ese711640 0.0 1010703
18:00+24ese715705 0.0 1009581
21:00+22ese716571 0.0 1009466